This is the latest recevied weather packets stored in our database for station/object DJ0JJ-11. If no packets are shown the sender has not sent any weather packets the latest 1 day(s).
| Time | Temp. | Humidity | Pressure | Rain* | Wind** | Luminosity | Snow |
|---|---|---|---|---|---|---|---|
| 1777734830 | 27.22° C | 28% | 1018.1 hPa | - | - | - | - |
| 1777733929 | 26.67° C | 30% | 1018.2 hPa | - | - | - | - |
| 1777733029 | 26.67° C | 30% | 1018.5 hPa | - | - | - | - |
| 1777732129 | 26.67° C | 30% | 1018.7 hPa | - | - | - | - |
| 1777731229 | 26.67° C | 30% | 1018.9 hPa | - | - | - | - |
| 1777730329 | 26.67° C | 31% | 1019.2 hPa | - | - | - | - |
| 1777729429 | 26.11° C | 31% | 1019.4 hPa | - | - | - | - |
| 1777728529 | 25.56° C | 33% | 1019.7 hPa | - | - | - | - |
| 1777727629 | 25° C | 33% | 1020 hPa | - | - | - | - |
| 1777726728 | 25° C | 34% | 1020.1 hPa | - | - | - | - |
| 1777725828 | 25° C | 31% | 1020.4 hPa | - | - | - | - |
| 1777724928 | 24.44° C | 32% | 1020.6 hPa | - | - | - | - |
| 1777724028 | 24.44° C | 32% | 1020.8 hPa | - | - | - | - |
| 1777723128 | 24.44° C | 33% | 1021 hPa | - | - | - | - |
| 1777722228 | 23.33° C | 34% | 1021.2 hPa | - | - | - | - |
| 1777721328 | 23.89° C | 34% | 1021.5 hPa | - | - | - | - |
| 1777720427 | 23.33° C | 37% | 1021.6 hPa | - | - | - | - |
| 1777719527 | 23.33° C | 36% | 1021.9 hPa | - | - | - | - |
| 1777718627 | 22.78° C | 36% | 1021.9 hPa | - | - | - | - |
| 1777717727 | 22.78° C | 34% | 1022.1 hPa | - | - | - | - |
| 1777716827 | 22.22° C | 36% | 1022.4 hPa | - | - | - | - |
| 1777715927 | 21.67° C | 36% | 1022.7 hPa | - | - | - | - |
| 1777715025 | 20.56° C | 36% | 1023 hPa | - | - | - | - |
| 1777714125 | 20° C | 39% | 1023.1 hPa | - | - | - | - |
| 1777713225 | 20° C | 40% | 1023.3 hPa | - | - | - | - |
* Rain since midnight (hover to see other rain measurements)
** Current wind speed in m/s (hover to see current wind gust speed)